Laconia, NH

2:58 PM EST on February 14, 2016 (GMT -0500)
Laconia Municipal

Weather History for KLCI - May, 2014

Change the Weather History Date:

Wednesday, May 28, 2014

  Actual Average Record
Temperature  
Mean Temperature 46 °F -  
Max Temperature 51 °F 69 °F 85 °F (1986)
Min Temperature 41 °F 46 °F 36 °F (1994)
Degree Days  
Heating Degree Days 18    
Moisture  
Dew Point 43 °F    
Average Humidity 84    
Maximum Humidity 93    
Minimum Humidity 71    
Precipitation  
Precipitation 0.12 in - - ()
Sea Level Pressure  
Sea Level Pressure 30.08 in    
Wind  
Wind Speed 9 mph (ENE)    
Max Wind Speed 15 mph    
Max Gust Speed 20 mph    
Visibility 8 miles    
Events      
Averages and records for this station are not official NWS values.
T = Trace of Precipitation, MM = Missing Value Source: NWS Daily Summary

Daily Weather History Graph

Daily Weather History Graph

Search for Another Location

Airport or City:

Trip Planner

Search our weather history database for the weather conditions in past years. The results will help you decide how hot, cold, wet, or windy it might be!

Date:

Astronomy

May. 28, 2014 Rise Set
Actual Time 5:09 AM EDT 8:16 PM EDT
Civil Twilight 4:35 AM EDT 8:51 PM EDT
Nautical Twilight 3:50 AM EDT 9:35 PM EDT
Astronomical Twilight 2:57 AM EDT 10:29 PM EDT
Moon 5:15 AM EDT (5/28) 8:10 PM EDT (5/28)
Length of Visible Light 16h 16m
Length of Day
15h 07m
Waning Crescent, 0% of the Moon is Illuminated
May 28
Waning Crescent
May 28
New
Jun 5
First Quarter
Jun 13
Full
Jun 19
Last Quarter

Hourly Weather History & Observations

Time (EDT) Temp. Windchill Dew Point Humidity Pressure Visibility Wind Dir Wind Speed Gust Speed Precip Events Conditions
12:15 AM 46.4 °F 41.9 °F 42.8 °F 87% 29.98 in 3.0 mi NE 9.2 mph - N/A   Overcast
12:35 AM 46.4 °F 41.5 °F 42.8 °F 87% 29.98 in 2.5 mi NE 10.4 mph 18.4 mph N/A   Overcast
12:55 AM 46.4 °F 42.9 °F 42.8 °F 87% 29.98 in 2.5 mi NE 6.9 mph - N/A   Overcast
1:15 AM 46.4 °F 41.5 °F 42.8 °F 87% 29.97 in 5.0 mi NE 10.4 mph - N/A   Overcast
1:35 AM 46.4 °F 40.1 °F 42.8 °F 87% 29.97 in 10.0 mi ENE 15.0 mph 19.6 mph N/A   Overcast
1:55 AM 46.4 °F 41.9 °F 42.8 °F 87% 29.97 in 10.0 mi NE 9.2 mph 19.6 mph N/A   Overcast
2:15 AM 46.4 °F 41.9 °F 42.8 °F 87% 29.98 in 10.0 mi NNE 9.2 mph 17.3 mph N/A   Overcast
2:55 AM 46.4 °F 41.1 °F 42.8 °F 87% 29.97 in 10.0 mi NE 11.5 mph 17.3 mph 0.12 in   Overcast
3:15 AM 46.4 °F 41.1 °F 42.8 °F 87% 29.97 in 10.0 mi ENE 11.5 mph - N/A   Overcast
3:35 AM 46.4 °F 41.1 °F 42.8 °F 87% 29.96 in 10.0 mi ENE 11.5 mph - N/A   Overcast
3:55 AM 46.4 °F 40.7 °F 42.8 °F 87% 29.96 in 10.0 mi ENE 12.7 mph 17.3 mph N/A   Overcast
4:15 AM 46.4 °F 41.5 °F 42.8 °F 87% 29.96 in 10.0 mi NE 10.4 mph 16.1 mph N/A   Overcast
4:35 AM 46.4 °F 40.7 °F 42.8 °F 87% 29.96 in 10.0 mi ENE 12.7 mph 16.1 mph N/A   Overcast
4:55 AM 46.4 °F 41.5 °F 42.8 °F 87% 29.97 in 10.0 mi NE 10.4 mph - N/A   Overcast
5:15 AM 46.4 °F 41.5 °F 42.8 °F 87% 29.96 in 10.0 mi ENE 10.4 mph 17.3 mph N/A   Overcast
5:35 AM 46.4 °F 41.1 °F 42.8 °F 87% 29.97 in 10.0 mi ENE 11.5 mph - N/A   Overcast
5:55 AM 46.4 °F 41.5 °F 42.8 °F 87% 29.97 in 9.0 mi ENE 10.4 mph 17.3 mph N/A   Overcast
6:15 AM 46.4 °F 41.9 °F 42.8 °F 87% 29.98 in 4.0 mi ENE 9.2 mph 16.1 mph N/A   Overcast
6:35 AM 46.4 °F 41.1 °F 42.8 °F 87% 29.98 in 3.0 mi ENE 11.5 mph - N/A   Overcast
6:55 AM 46.4 °F 41.1 °F 42.8 °F 87% 29.99 in 3.0 mi ENE 11.5 mph - N/A   Overcast
7:15 AM 46.4 °F 41.5 °F 42.8 °F 87% 30.00 in 3.0 mi ENE 10.4 mph 16.1 mph N/A   Overcast
7:35 AM 46.4 °F 41.1 °F 42.8 °F 87% 30.01 in 3.0 mi ENE 11.5 mph - N/A   Overcast
7:55 AM 46.4 °F 42.4 °F 42.8 °F 87% 30.02 in 3.0 mi NE 8.1 mph - N/A   Overcast
8:15 AM 46.4 °F 41.9 °F 42.8 °F 87% 30.03 in 5.0 mi ENE 9.2 mph - N/A   Overcast
8:35 AM 46.4 °F 41.5 °F 42.8 °F 87% 30.03 in 4.0 mi NE 10.4 mph - N/A   Overcast
9:15 AM 46.4 °F 41.5 °F 42.8 °F 87% 30.05 in 4.0 mi ENE 10.4 mph - N/A   Overcast
9:55 AM 46.4 °F 41.9 °F 44.6 °F 93% 30.06 in 5.0 mi ENE 9.2 mph - N/A   Overcast
10:15 AM 48.2 °F - 44.6 °F 87% 30.06 in 3.0 mi ENE 10.4 mph - N/A   Overcast
10:35 AM 48.2 °F - 44.6 °F 87% 30.07 in 8.0 mi NE 9.2 mph 16.1 mph N/A   Overcast
10:55 AM 48.2 °F - 44.6 °F 87% 30.07 in 7.0 mi ENE 10.4 mph - N/A   Overcast
11:15 AM 48.2 °F - 44.6 °F 87% 30.08 in 5.0 mi ENE 13.8 mph 19.6 mph N/A   Overcast
11:35 AM 48.2 °F - 44.6 °F 87% 30.09 in 2.5 mi ENE 11.5 mph - N/A   Overcast
11:55 AM 48.2 °F - 42.8 °F 82% 30.10 in 10.0 mi ENE 9.2 mph - N/A   Overcast
12:15 PM 48.2 °F - 42.8 °F 82% 30.11 in 10.0 mi ENE 6.9 mph - N/A   Overcast
12:55 PM 48.2 °F - 42.8 °F 82% 30.12 in 10.0 mi ENE 10.4 mph - N/A   Overcast
1:15 PM 48.2 °F - 44.6 °F 87% 30.12 in 10.0 mi ENE 9.2 mph - N/A   Overcast
1:35 PM 48.2 °F - 44.6 °F 87% 30.13 in 3.0 mi NE 6.9 mph - N/A   Overcast
2:15 PM 50.0 °F - 44.6 °F 82% 30.13 in 10.0 mi East 12.7 mph - N/A   Overcast
2:55 PM 48.2 °F - 44.6 °F 87% 30.14 in 10.0 mi ENE 10.4 mph - N/A   Overcast
3:15 PM 51.8 °F - 44.6 °F 76% 30.14 in 10.0 mi ENE 11.5 mph 16.1 mph N/A   Overcast
3:35 PM 51.8 °F - 44.6 °F 76% 30.14 in 10.0 mi NNE 8.1 mph - N/A   Overcast
3:55 PM 51.8 °F - 44.6 °F 76% 30.14 in 10.0 mi ENE 10.4 mph - N/A   Overcast
4:15 PM 51.8 °F - 42.8 °F 71% 30.15 in 10.0 mi NNE 6.9 mph - N/A   Overcast
4:35 PM 51.8 °F - 44.6 °F 76% 30.14 in 10.0 mi ENE 8.1 mph - N/A   Overcast
4:55 PM 51.8 °F - 42.8 °F 71% 30.15 in 10.0 mi ENE 8.1 mph - N/A   Overcast
5:15 PM 51.8 °F - 44.6 °F 76% 30.15 in 10.0 mi ENE 5.8 mph - N/A   Overcast
5:35 PM 51.8 °F - 44.6 °F 76% 30.16 in 10.0 mi East 6.9 mph - N/A   Overcast
6:15 PM 51.8 °F - 42.8 °F 71% 30.16 in 10.0 mi NE 5.8 mph - N/A   Overcast
6:35 PM 51.8 °F - 44.6 °F 76% 30.15 in 10.0 mi East 3.5 mph - N/A   Overcast
7:15 PM 51.8 °F - 44.6 °F 76% 30.16 in 10.0 mi ENE 4.6 mph - N/A   Overcast
7:35 PM 51.8 °F - 44.6 °F 76% 30.17 in 10.0 mi NE 4.6 mph - N/A   Overcast
7:55 PM 51.8 °F - 44.6 °F 76% 30.17 in 10.0 mi NE 3.5 mph - N/A   Mostly Cloudy
8:15 PM 50.0 °F - 44.6 °F 82% 30.17 in 10.0 mi Calm Calm - N/A   Partly Cloudy
8:35 PM 48.2 °F - 44.6 °F 87% 30.18 in 10.0 mi Calm Calm - N/A   Clear
8:55 PM 48.2 °F - 44.6 °F 87% 30.18 in 10.0 mi Calm Calm - N/A   Clear
9:15 PM 46.4 °F - 42.8 °F 87% 30.19 in 10.0 mi Calm Calm - N/A   Clear
9:35 PM 46.4 °F - 42.8 °F 87% 30.20 in 10.0 mi Calm Calm - N/A   Clear
9:55 PM 44.6 °F - 42.8 °F 93% 30.20 in 10.0 mi Calm Calm - N/A   Clear
10:15 PM 44.6 °F - 41.0 °F 87% 30.21 in 10.0 mi Calm Calm - N/A   Clear
10:35 PM 44.6 °F - 41.0 °F 87% 30.21 in 10.0 mi Calm Calm - N/A   Clear
11:15 PM 42.8 °F - 39.2 °F 87% 30.22 in 10.0 mi Calm Calm - N/A   Clear
11:55 PM 41.0 °F - 37.4 °F 87% 30.22 in 5.0 mi Calm Calm - N/A   Partly Cloudy